This is the latest recevied weather packets stored in our database for station/object XE2G-31. If no packets are shown the sender has not sent any weather packets the latest 10 day(s).
| Time | Temp. | Humidity | Pressure | Rain* | Wind** | Luminosity | Snow |
|---|---|---|---|---|---|---|---|
| 1777446109 | 22.22° C | 72% | 871 hPa | - | - | - | - |
| 1777445162 | 22.22° C | 71% | 871 hPa | - | - | - | - |
| 1777444216 | 22.22° C | 68% | 871 hPa | - | - | - | - |
| 1777443269 | 23.33° C | 62% | 871 hPa | - | - | - | - |
| 1777442322 | 23.33° C | 58% | 871 hPa | - | - | - | - |
| 1777441375 | 23.89° C | 53% | 872 hPa | - | - | - | - |
| 1777440428 | 24.44° C | 54% | 872 hPa | - | - | - | - |
| 1777439482 | 25° C | 51% | 872 hPa | - | - | - | - |
| 1777438535 | 25° C | 52% | 872 hPa | - | - | - | - |
| 1777437588 | 25.56° C | 44% | 872 hPa | - | - | - | - |
| 1777436641 | 26.11° C | 34% | 872 hPa | - | - | - | - |
| 1777435694 | 26.11° C | 44% | 872 hPa | - | - | - | - |
| 1777434747 | 26.11° C | 29% | 871 hPa | - | - | - | - |
| 1777433801 | 26.11° C | 42% | 872 hPa | - | - | - | - |
| 1777432854 | 26.11° C | 47% | 872 hPa | - | - | - | - |
| 1777431907 | 26.11° C | 46% | 872 hPa | - | - | - | - |
| 1777430960 | 26.67° C | 45% | 871 hPa | - | - | - | - |
| 1777430013 | 26.67° C | 44% | 871 hPa | - | - | - | - |
| 1777429066 | 26.67° C | 44% | 871 hPa | - | - | - | - |
| 1777428119 | 27.22° C | 42% | 871 hPa | - | - | - | - |
| 1777427173 | 26.67° C | 41% | 871 hPa | - | - | - | - |
| 1777426226 | 27.22° C | 38% | 871 hPa | - | - | - | - |
| 1777425279 | 26.67° C | 39% | 871 hPa | - | - | - | - |
| 1777424332 | 27.22° C | 35% | 871 hPa | - | - | - | - |
| 1777423385 | 27.22° C | 37% | 871 hPa | - | - | - | - |
* Rain since midnight (hover to see other rain measurements)
** Current wind speed in m/s (hover to see current wind gust speed)